Location: Burland Observatory
(39.4088°N, 105.4217°W)
Time: 22:09:05
(UTC-07:00)

SR - Pass Details

Date: 14 December 2019
Orbit: 574 x 882 km, 66.7° (Epoch: 21 January)

Event Time Altitude Azimuth Distance (km) Brightness Sun altitude
Rises 09:41:04 0° 247° (WSW) 3,283 ? 19.9°
Reaches altitude 10° 09:43:55 10° 262° (W) 2,405 ? 20.2°
Maximum altitude 09:48:18 23° 314° (NW) 1,724 ? 20.6°
Drops below altitude 10° 09:52:53 10° 5° (N) 2,520 ? 21.1°
Sets 09:55:58 0° 20° (NNE) 3,478 ? 21.3°
